This is the latest recevied weather packets stored in our database for station/object KB3GVC-13. If no packets are shown the sender has not sent any weather packets the latest 10 day(s).
| Time | Temp. | Humidity | Pressure | Rain* | Wind** | Luminosity | Snow |
|---|---|---|---|---|---|---|---|
| 1777593590 | 13.89° C | 60% | 1011.1 hPa | 0 mm | - | - | - |
| 1777593290 | 13.89° C | 60% | 1011 hPa | 0 mm | - | - | - |
| 1777592985 | 14.44° C | 59% | 1011 hPa | 0 mm | - | - | - |
| 1777592680 | 14.44° C | 60% | 1010.9 hPa | 0 mm | - | - | - |
| 1777592375 | 14.44° C | 61% | 1010.9 hPa | 0 mm | - | - | - |
| 1777592071 | 14.44° C | 62% | 1010.7 hPa | 0 mm | - | - | - |
| 1777591769 | 14.44° C | 62% | 1010.7 hPa | 0 mm | - | - | - |
| 1777591464 | 15° C | 66% | 1010.5 hPa | 0 mm | - | - | - |
| 1777591160 | 15° C | 66% | 1010.4 hPa | 0 mm | - | - | - |
| 1777590855 | 15.56° C | 64% | 1010.4 hPa | 0 mm | - | - | - |
| 1777590552 | 15.56° C | 63% | 1010.5 hPa | 0 mm | - | - | - |
| 1777590248 | 15.56° C | 62% | 1010.2 hPa | 0 mm | - | - | - |
| 1777589946 | 16.11° C | 60% | 1010.3 hPa | 0 mm | - | - | - |
| 1777589642 | 16.11° C | 58% | 1010.1 hPa | 0 mm | - | - | - |
| 1777589339 | 16.11° C | 57% | 1009.9 hPa | 0 mm | - | - | - |
| 1777589036 | 16.67° C | 55% | 1009.7 hPa | 0 mm | - | - | - |
| 1777588732 | 16.67° C | 55% | 1009.8 hPa | 0 mm | - | - | - |
| 1777588428 | 17.22° C | 53% | 1009.5 hPa | 0 mm | - | - | - |
| 1777588123 | 17.22° C | 51% | 1009.3 hPa | 0 mm | - | - | - |
| 1777587820 | 17.78° C | 51% | 1009.3 hPa | 0 mm | - | - | - |
| 1777587519 | 17.78° C | 50% | 1009.3 hPa | 0 mm | - | - | - |
| 1777587215 | 17.78° C | 50% | 1009.4 hPa | 0 mm | - | - | - |
| 1777586911 | 18.89° C | 48% | 1009.3 hPa | 0 mm | - | - | - |
| 1777586607 | 18.89° C | 48% | 1009.2 hPa | 0 mm | - | - | - |
| 1777586303 | 18.33° C | 49% | 1009.2 hPa | 0 mm | - | - | - |
* Rain latest hour (hover to see other rain measurements)
** Current wind speed in m/s (hover to see current wind gust speed)